SCP
0 0 0 0 0 0 0 0 0 0 0 0 0 0 0 0 0 0 0 0 0 0 0 0 0 0 0 0 0 0 0 0 0 0 0 0 0 0 0 0 0 0 0 0
0 0 0 0 0 0 0 0 0 0 0 0 0 0 0 0 0 0 0 0 0 0 0 0 0 0 0 0 0 0 0 0 0 0 0 0 0 0 0 0 0 0 0 0
0 0 0 0 0 0 0 0 0 0 0 0 0 0 0 0 0 0 0 0 0 0 0 0 0 0 0 0 0 0 0 0 0 0 0 0 0 0 0 0 0 0 0 0
0 0 0 0 0 0 0 0 0 0 0 0 0 0 0 0 0 0 0 0 0 0 0 0 0 0 0 0 0 0 0 0 0 0 0 0 0 0 0 0 0 0 0 0
0 0 0 0 0 0 0 0 0 0 0 0 0 0 0 0 0 0 0 0 0 0 0 0 0 0 0 0 0 0 0 0 0 0 0 0 0 0 0 0 0 0 0 0
0 0 0 0 0 0 0 0 0 0 0 0 0 0 0 0 0 0 0 0 0 0 0 0 0 0 0 0 0 0 0 0 0 0 0 0 0 0 0 0 0 0 0 0
0 0 0 0 0 0 0 0 0 0 0 0 0 0 0 0 0 0 0 0 0 0 0 0 0 0 0 0 0 0 0 0 0 0 0 0 0 0 0 0 0 0 0 0
0 0 0 0 0 0 0 0 0 0 0 0 0 0 0 0 0 0 0 0 0 0 0 0 0 0 0 0 0 0 0 0 0 0 0 0 0 0 0 0 0 0 0 0
0 0 0 0 0 0 0 0 0 0 0 0 0 0 0 0 0 0 0 0 0 0 0 0 0 0 0 0 0 0 0 0 0 0 0 0 0 0 0 0 0 0 0 0
0 0 0 0 0 0 0 0 0 0 0 0 0 0 0 0 0 0 0 0 0 0 0 0 0 0 0 0 0 0 0 0 0 0 0 0 0 0 0 0 0 0 0 0
0 0 0 0 0 0 0 0 0 0 0 0 0 0 0 0 0 0 0 0 0 0 0 0 0 0 0 0 0 0 0 0 0 0 0 0 0 0 0 0 0 0 0 0
0 0 0 0 0 0 0 0 0 0 0 0 0 0 0 0 0 0 0 0 0 0 0 0 0 0 0 0 0 0 0 0 0 0 0 0 0 0 0 0 0 0 0 0
0 0 0 0 0 0 0 0 0 0 0 0 0 0 0 0 0 0 -0 0 0 0 0 0 0 0 0 0 0 0 0 0 0 0 0 0 0 0 0 0 0 0 0 0
0 0 0 0 0 0 0 0 0 0 0 0 0 0 0 0 0 0 0 0 0 0 0 0 0 0 0 0 0 0 0 0 0 0 0 0 0 0 0 0 0 0 0 0
-0 0 0 0 0 0 0 0 0 0 0 0 0 0 0 0 0 0 0 0 0 0 0 0 0 0 0 0 0 0 0 0 0 0 0 0 0 0 0 0 0 0 0 0
0 -0 0 0 0 0 0 0 0 0 0 0 0 0 0 0 0 0 0 0 0 0 0 0 0 0 0 0 0 0 0 0 0 0 0 0 0 0 0 0 0 0 0 0
0 0 0 -0 0 -0 0 0 0 0 0 0 0 0 0 0 0 0 0 0 0 0 0 0 0 0 0 0 0 0 0 0 0 0 0 0 0 0 0 0 0 0 0 0
0 0 0 0 0 0 -0 0 -0 -0 0 0 0 0 0 0 0 0 0 0 0 0 0 0 0 0 0 0 0 0 0 0 0 0 0 0 0 0 0 0 0 0 0 0
0 0 0 0 0 0 0 0 0 0 0 0 0 0 0 0 0 0 0 0 0 0 0 0 0 0 0 0 0 0 0 0 0 0 0 0 0 0 0 0 0 0 0 0
0 0 0 0 0 0 0 0 0 0 0 0 0 0 0 0 0 0 0 0 0 0 0 0 0 0 0 0 0 0 0 0 0 0 0 0 0 0 0 0 0 0 0 0
0 0 0 0 0 0 0 0 0 0 0 0 0 0 -0 0 0 0 0 0 0 0 0 0 0 0 0 0 0 0 0 0 0 0 0 0 0 0 0 0 0 0 0 0
0 0 0 0 0 0 0 0 0 0 0 0 0 0 0 0 0 0 0 0 0 0 0 0 0 0 0 0 0 0 0 0 0 0 0 0 0 0 0 0 0 0 0 0
0 0 0 0 0 0 0 0 0 0 0 0 0 0 0 0 0 0 0 0 0 0 0 0 0 0 0 0 0 0 0 0 0 0 0 0 0 0 0 0 0 0 0 0
0 0 0 0 0 0 0 0 0 0 0 0 0 0 0 0 0 0 0 0 0 0 0 0 0 0 0 0 0 0 0 0 0 0 0 0 0 0 0 0 0 0 0 0
0 0 0 0 0 0 0 0 0 0 0 0 0 0 0 0 0 0 0 0 0 0 0 0 0 0 0 0 0 0 0 0 0 0 0 0 0 0 0 0 0 0 0 0
0 0 0 0 0 0 0 0 0 0 0 0 0 0 0 0 0 0 0 0 0 0 0 0 0 0 0 0 0 0 0 0 0 0 0 0 0 0 0 0 0 0 0 0
Wind_Speed_500mb
7 5 11 10 5 3 6 5 7 2 1 7 9 12 15 10 13 21 28 32 34 38 29 32 34 35 37 39 38 35 36 33 36 38 39 40 40 35 35 33 32 32 33 33
6 8 9 3 4 3 3 6 4 3 4 5 1 19 16 14 19 36 37 36 40 40 38 36 36 38 36 37 38 40 43 43 43 43 43 44 43 43 42 41 40 38 38 38
8 3 10 11 5 5 2 5 6 2 2 6 2 13 10 7 19 38 47 51 48 45 40 38 37 37 36 34 34 34 33 34 36 42 48 52 54 55 54 52 49 45 41 39
4 0 13 13 5 7 6 8 8 11 7 6 3 9 9 3 13 12 44 45 52 53 49 46 45 43 41 38 36 34 34 35 37 39 42 45 49 54 54 53 53 51 50 47
7 8 11 8 9 8 5 4 7 7 8 4 5 3 13 4 9 13 3 13 25 35 37 30 36 50 47 44 42 41 42 44 46 47 48 47 49 49 50 50 49 47 46 45
2 1 2 3 9 11 11 8 12 7 5 1 7 8 9 8 9 3 5 8 4 9 18 20 20 27 31 28 25 26 26 28 30 32 35 39 42 44 44 43 42 39 39 43
3 2 4 2 13 10 5 4 6 7 4 7 7 3 13 15 12 9 7 9 5 13 20 22 20 19 18 16 14 13 12 13 15 18 21 25 30 36 39 39 39 37 35 33
7 4 8 4 5 16 8 7 5 9 4 7 5 11 10 9 5 9 18 13 19 19 19 20 20 17 15 14 11 10 9 6 4 1 3 7 10 14 18 23 29 26 24 25
5 2 6 3 2 11 12 13 22 8 3 3 7 12 18 13 11 3 10 20 24 22 19 19 19 18 16 14 13 10 7 5 3 3 4 5 6 7 8 9 15 23 25 24
6 3 6 6 2 9 5 13 7 1 6 8 8 8 11 15 5 3 8 19 21 18 20 22 21 18 17 16 14 12 9 6 5 6 8 9 10 10 10 9 9 11 16 20
4 2 2 6 4 10 4 7 6 7 5 8 2 9 12 16 13 12 14 18 18 17 21 23 23 22 18 15 14 12 10 9 8 8 9 10 11 12 12 11 11 12 16 20
5 4 6 2 1 4 1 11 9 10 9 4 1 19 8 14 16 17 17 16 18 20 22 26 24 22 20 15 11 8 7 8 9 11 12 11 12 13 13 13 13 13 16 18
7 3 4 3 5 7 5 6 6 8 7 11 9 12 2 12 18 19 19 20 21 26 29 26 24 21 17 12 6 2 3 8 13 16 17 17 16 14 14 15 15 14 14 15
5 7 6 1 2 5 2 5 5 6 7 12 19 23 15 13 13 19 16 15 24 31 30 26 21 15 14 14 13 10 8 14 19 21 21 20 20 19 18 18 18 17 17 16
3 6 3 3 7 7 9 10 10 16 28 16 41 28 26 16 10 18 19 19 27 30 33 30 21 15 17 20 17 14 14 20 22 20 18 18 20 20 20 20 20 21 20 19
2 5 2 7 10 9 11 17 16 22 20 28 36 43 13 24 32 31 32 27 37 42 43 38 27 18 17 25 24 19 21 21 18 13 12 16 18 21 22 23 23 23 23 24
2 6 4 9 7 5 10 14 26 14 14 19 23 45 10 15 22 34 32 34 46 57 54 46 36 19 18 26 26 26 24 20 17 15 18 20 18 20 22 25 25 25 25 26
8 3 5 6 6 0 15 9 13 19 23 14 24 37 16 33 48 54 56 60 63 61 57 59 57 42 23 34 30 28 25 21 18 18 17 15 16 19 23 26 27 28 29 29
21 8 3 4 5 13 17 13 12 13 19 13 33 34 46 47 30 50 67 72 68 68 66 58 54 56 43 35 27 26 27 23 18 13 12 15 19 23 25 27 30 32 32 33
7 10 11 3 9 13 14 4 11 11 7 24 30 30 22 10 6 24 58 53 57 69 66 57 48 44 39 32 30 31 29 22 16 13 14 19 25 27 27 28 30 32 34 35
8 6 24 23 14 12 22 19 7 6 14 7 7 22 16 9 26 47 29 23 20 24 33 41 42 37 34 32 33 30 23 17 14 14 20 25 25 24 24 25 26 29 32 34
13 13 9 5 8 19 24 6 15 18 37 26 27 35 43 47 50 57 46 39 36 26 21 22 30 32 32 31 28 23 18 15 17 23 26 28 27 26 25 24 25 26 28 30
6 15 10 18 14 15 25 24 17 27 33 51 55 48 36 39 42 38 33 20 17 14 13 14 19 24 25 22 20 18 17 20 24 28 30 29 30 28 25 24 24 26 27 28
9 10 7 7 24 28 46 34 37 39 45 57 57 58 43 38 35 32 24 17 13 13 14 17 19 19 19 18 18 20 25 30 32 35 37 36 33 30 27 25 24 24 25 26
13 19 10 10 32 9 48 58 65 66 47 49 39 48 38 31 32 26 23 12 10 12 16 16 16 17 22 27 30 34 36 38 39 40 37 33 30 28 26 25 22 21 23 23
20 15 11 18 21 21 44 53 35 39 50 46 48 37 16 13 15 10 36 19 14 12 17 20 23 29 33 37 38 39 42 42 39 34 30 29 29 28 25 23 20 15 18 21
Wind_Direction_500mb
148 146 204 207 149 14 151 145 155 203 18 153 208 269 259 237 252 244 235 234 235 236 233 231 235 239 242 241 240 239 239 237 238 241 245 248 251 254 255 255 258 259 264 267
63 222 192 137 206 41 119 139 163 38 12 136 96 266 260 251 245 243 244 243 242 244 240 236 238 239 240 241 240 242 242 242 243 245 250 253 256 257 257 258 261 262 263 266
156 236 159 131 143 178 266 169 171 133 106 50 311 287 252 257 247 247 247 250 251 250 248 238 234 233 232 231 233 234 236 240 243 246 247 249 251 253 256 258 262 265 266 266
213 74 129 106 184 171 212 209 148 134 123 218 334 268 289 288 282 247 254 250 250 249 251 246 235 227 226 226 229 233 238 241 244 247 249 250 251 253 257 259 261 262 262 263
235 160 147 151 194 153 274 126 110 92 95 94 322 77 272 342 287 271 283 256 251 245 239 237 234 223 224 229 235 241 246 250 253 253 254 255 256 258 259 260 261 260 258 259
248 311 256 192 90 130 173 78 55 53 86 320 239 170 265 205 204 32 18 348 291 200 194 189 185 199 212 220 229 238 245 251 253 253 253 254 255 256 256 256 256 255 257 261
7 315 311 146 89 71 34 42 11 351 5 232 326 230 256 264 239 222 235 318 171 147 149 153 159 169 182 196 208 219 229 239 247 251 254 256 258 258 258 257 258 255 252 250
150 294 194 185 206 152 178 150 200 229 239 295 354 243 247 249 274 264 287 234 181 164 161 159 157 161 162 157 152 149 148 150 152 202 266 277 276 270 262 255 250 248 245 239
164 226 332 39 250 133 168 167 191 201 5 4 253 291 287 290 301 233 211 189 185 176 175 170 160 159 155 146 138 134 126 111 85 31 359 349 332 312 293 271 251 240 238 236
162 185 339 317 178 38 134 151 99 360 167 237 277 273 248 304 269 273 229 204 189 185 183 176 169 158 147 137 127 119 108 84 46 12 347 341 338 333 326 314 291 264 247 242
114 265 271 51 293 170 110 129 155 160 160 192 242 256 222 262 300 300 245 211 203 193 184 175 163 151 144 135 124 111 91 66 34 13 350 340 333 323 317 306 287 267 254 248
155 190 176 163 9 59 241 182 173 191 214 222 242 264 257 259 283 272 254 215 202 189 178 166 159 150 143 140 124 93 57 26 4 359 355 344 329 317 309 299 288 278 268 260
11 252 119 48 338 355 192 211 165 91 78 210 171 256 275 298 320 317 238 209 200 179 169 166 163 163 156 156 164 173 351 345 338 334 328 327 319 314 303 297 293 287 280 274
19 14 23 189 50 346 284 28 248 167 211 228 238 264 309 322 318 316 295 231 196 185 179 173 170 174 194 212 226 236 280 310 315 315 312 308 309 313 311 303 293 288 283 277
131 211 347 260 226 212 221 229 249 226 231 209 255 261 261 254 271 285 272 242 215 209 203 196 191 206 218 220 222 232 277 292 298 299 298 298 298 298 298 296 289 281 275 269
80 209 98 304 301 230 258 261 237 231 242 243 257 269 185 249 248 255 258 237 230 228 221 214 210 222 236 224 226 243 272 274 270 264 271 280 284 287 289 288 285 282 276 271
99 123 78 287 347 9 311 230 219 220 218 213 243 248 186 230 231 245 251 239 240 240 238 228 218 237 255 228 226 257 252 239 231 240 253 263 273 279 278 275 275 275 273 271
171 145 131 240 15 214 241 205 196 215 257 235 263 266 233 245 246 256 259 259 261 260 254 249 237 244 274 228 249 247 232 220 229 245 255 272 283 286 284 282 279 274 272 272
194 158 281 203 217 305 307 261 176 175 270 224 231 260 264 258 263 261 257 254 256 255 259 260 259 255 261 237 240 221 214 220 232 244 275 300 310 308 300 289 279 273 269 268
179 198 191 134 223 224 241 338 211 154 268 254 209 242 283 162 213 258 279 272 264 260 256 257 254 252 242 239 222 212 213 217 226 253 285 305 308 304 299 291 282 273 268 267
137 180 219 235 244 283 248 211 179 134 243 72 306 304 300 205 247 287 290 315 292 273 257 249 245 236 239 225 210 206 209 222 247 274 298 305 304 299 292 287 282 274 270 268
162 164 198 188 207 264 219 122 191 236 273 299 310 310 317 303 304 296 284 282 280 279 272 243 231 222 205 197 197 205 224 247 273 291 299 302 302 301 294 283 274 270 267 266
245 189 183 184 208 235 202 220 240 270 286 297 296 294 313 313 312 302 297 288 276 252 242 204 181 179 183 193 208 226 250 272 287 295 299 301 302 300 297 292 281 271 266 265
250 164 217 99 254 237 254 249 252 273 290 297 299 284 293 296 319 303 290 291 268 232 198 187 187 196 212 224 241 265 282 289 294 297 297 296 292 292 292 286 281 273 268 264
196 158 186 245 262 288 269 266 279 282 286 294 293 290 285 270 259 305 295 260 232 228 225 225 234 247 257 263 270 277 281 287 291 291 287 286 287 289 289 286 281 275 268 260
187 187 196 243 238 222 265 282 271 286 301 287 301 308 250 263 252 264 276 255 245 240 248 254 260 263 264 266 270 276 284 288 286 280 278 280 284 285 282 280 276 276 260 250
Wind_Speed_850mb
7 5 11 10 5 3 6 5 7 2 1 7 9 12 15 10 13 21 28 32 34 38 29 32 34 35 37 39 38 35 36 33 36 38 39 40 40 35 35 33 32 32 33 33
6 8 9 3 4 3 3 6 4 3 4 5 1 19 16 14 19 36 37 36 40 40 38 36 36 38 36 37 38 40 43 43 43 43 43 44 43 43 42 41 40 38 38 38
8 3 10 11 5 5 2 5 6 2 2 6 2 13 10 7 19 38 47 51 48 45 40 38 37 37 36 34 34 34 33 34 36 42 48 52 54 55 54 52 49 45 41 39
4 0 13 13 5 7 6 8 8 11 7 6 3 9 9 3 13 12 44 45 52 53 49 46 45 43 41 38 36 34 34 35 37 39 42 45 49 54 54 53 53 51 50 47
7 8 11 8 9 8 5 4 7 7 8 4 5 3 13 4 9 13 3 13 25 35 37 30 36 50 47 44 42 41 42 44 46 47 48 47 49 49 50 50 49 47 46 45
2 1 2 3 9 11 11 8 12 7 5 1 7 8 9 8 9 3 5 8 4 9 18 20 20 27 31 28 25 26 26 28 30 32 35 39 42 44 44 43 42 39 39 43
3 2 4 2 13 10 5 4 6 7 4 7 7 3 13 15 12 9 7 9 5 13 20 22 20 19 18 16 14 13 12 13 15 18 21 25 30 36 39 39 39 37 35 33
7 4 8 4 5 16 8 7 5 9 4 7 5 11 10 9 5 9 18 13 19 19 19 20 20 17 15 14 11 10 9 6 4 1 3 7 10 14 18 23 29 26 24 25
5 2 6 3 2 11 12 13 22 8 3 3 7 12 18 13 11 3 10 20 24 22 19 19 19 18 16 14 13 10 7 5 3 3 4 5 6 7 8 9 15 23 25 24
6 3 6 6 2 9 5 13 7 1 6 8 8 8 11 15 5 3 8 19 21 18 20 22 21 18 17 16 14 12 9 6 5 6 8 9 10 10 10 9 9 11 16 20
4 2 2 6 4 10 4 7 6 7 5 8 2 9 12 16 13 12 14 18 18 17 21 23 23 22 18 15 14 12 10 9 8 8 9 10 11 12 12 11 11 12 16 20
5 4 6 2 1 4 1 11 9 10 9 4 1 19 8 14 16 17 17 16 18 20 22 26 24 22 20 15 11 8 7 8 9 11 12 11 12 13 13 13 13 13 16 18
7 3 4 3 5 7 5 6 6 8 7 11 9 12 2 12 18 19 19 20 21 26 29 26 24 21 17 12 6 2 3 8 13 16 17 17 16 14 14 15 15 14 14 15
5 7 6 1 2 5 2 5 5 6 7 12 19 23 15 13 13 19 16 15 24 31 30 26 21 15 14 14 13 10 8 14 19 21 21 20 20 19 18 18 18 17 17 16
3 6 3 3 7 7 9 10 10 16 28 16 41 28 26 16 10 18 19 19 27 30 33 30 21 15 17 20 17 14 14 20 22 20 18 18 20 20 20 20 20 21 20 19
2 5 2 7 10 9 11 17 16 22 20 28 36 43 13 24 32 31 32 27 37 42 43 38 27 18 17 25 24 19 21 21 18 13 12 16 18 21 22 23 23 23 23 24
2 6 4 9 7 5 10 14 26 14 14 19 23 45 10 15 22 34 32 34 46 57 54 46 36 19 18 26 26 26 24 20 17 15 18 20 18 20 22 25 25 25 25 26
8 3 5 6 6 0 15 9 13 19 23 14 24 37 16 33 48 54 56 60 63 61 57 59 57 42 23 34 30 28 25 21 18 18 17 15 16 19 23 26 27 28 29 29
21 8 3 4 5 13 17 13 12 13 19 13 33 34 46 47 30 50 67 72 68 68 66 58 54 56 43 35 27 26 27 23 18 13 12 15 19 23 25 27 30 32 32 33
7 10 11 3 9 13 14 4 11 11 7 24 30 30 22 10 6 24 58 53 57 69 66 57 48 44 39 32 30 31 29 22 16 13 14 19 25 27 27 28 30 32 34 35
8 6 24 23 14 12 22 19 7 6 14 7 7 22 16 9 26 47 29 23 20 24 33 41 42 37 34 32 33 30 23 17 14 14 20 25 25 24 24 25 26 29 32 34
13 13 9 5 8 19 24 6 15 18 37 26 27 35 43 47 50 57 46 39 36 26 21 22 30 32 32 31 28 23 18 15 17 23 26 28 27 26 25 24 25 26 28 30
6 15 10 18 14 15 25 24 17 27 33 51 55 48 36 39 42 38 33 20 17 14 13 14 19 24 25 22 20 18 17 20 24 28 30 29 30 28 25 24 24 26 27 28
9 10 7 7 24 28 46 34 37 39 45 57 57 58 43 38 35 32 24 17 13 13 14 17 19 19 19 18 18 20 25 30 32 35 37 36 33 30 27 25 24 24 25 26
13 19 10 10 32 9 48 58 65 66 47 49 39 48 38 31 32 26 23 12 10 12 16 16 16 17 22 27 30 34 36 38 39 40 37 33 30 28 26 25 22 21 23 23
20 15 11 18 21 21 44 53 35 39 50 46 48 37 16 13 15 10 36 19 14 12 17 20 23 29 33 37 38 39 42 42 39 34 30 29 29 28 25 23 20 15 18 21
Wind_Direction_850mb
148 146 204 207 149 14 151 145 155 203 18 153 208 269 259 237 252 244 235 234 235 236 233 231 235 239 242 241 240 239 239 237 238 241 245 248 251 254 255 255 258 259 264 267
63 222 192 137 206 41 119 139 163 38 12 136 96 266 260 251 245 243 244 243 242 244 240 236 238 239 240 241 240 242 242 242 243 245 250 253 256 257 257 258 261 262 263 266
156 236 159 131 143 178 266 169 171 133 106 50 311 287 252 257 247 247 247 250 251 250 248 238 234 233 232 231 233 234 236 240 243 246 247 249 251 253 256 258 262 265 266 266
213 74 129 106 184 171 212 209 148 134 123 218 334 268 289 288 282 247 254 250 250 249 251 246 235 227 226 226 229 233 238 241 244 247 249 250 251 253 257 259 261 262 262 263
235 160 147 151 194 153 274 126 110 92 95 94 322 77 272 342 287 271 283 256 251 245 239 237 234 223 224 229 235 241 246 250 253 253 254 255 256 258 259 260 261 260 258 259
248 311 256 192 90 130 173 78 55 53 86 320 239 170 265 205 204 32 18 348 291 200 194 189 185 199 212 220 229 238 245 251 253 253 253 254 255 256 256 256 256 255 257 261
7 315 311 146 89 71 34 42 11 351 5 232 326 230 256 264 239 222 235 318 171 147 149 153 159 169 182 196 208 219 229 239 247 251 254 256 258 258 258 257 258 255 252 250
150 294 194 185 206 152 178 150 200 229 239 295 354 243 247 249 274 264 287 234 181 164 161 159 157 161 162 157 152 149 148 150 152 202 266 277 276 270 262 255 250 248 245 239
164 226 332 39 250 133 168 167 191 201 5 4 253 291 287 290 301 233 211 189 185 176 175 170 160 159 155 146 138 134 126 111 85 31 359 349 332 312 293 271 251 240 238 236
162 185 339 317 178 38 134 151 99 360 167 237 277 273 248 304 269 273 229 204 189 185 183 176 169 158 147 137 127 119 108 84 46 12 347 341 338 333 326 314 291 264 247 242
114 265 271 51 293 170 110 129 155 160 160 192 242 256 222 262 300 300 245 211 203 193 184 175 163 151 144 135 124 111 91 66 34 13 350 340 333 323 317 306 287 267 254 248
155 190 176 163 9 59 241 182 173 191 214 222 242 264 257 259 283 272 254 215 202 189 178 166 159 150 143 140 124 93 57 26 4 359 355 344 329 317 309 299 288 278 268 260
11 252 119 48 338 355 192 211 165 91 78 210 171 256 275 298 320 317 238 209 200 179 169 166 163 163 156 156 164 173 351 345 338 334 328 327 319 314 303 297 293 287 280 274
19 14 23 189 50 346 284 28 248 167 211 228 238 264 309 322 318 316 295 231 196 185 179 173 170 174 194 212 226 236 280 310 315 315 312 308 309 313 311 303 293 288 283 277
131 211 347 260 226 212 221 229 249 226 231 209 255 261 261 254 271 285 272 242 215 209 203 196 191 206 218 220 222 232 277 292 298 299 298 298 298 298 298 296 289 281 275 269
80 209 98 304 301 230 258 261 237 231 242 243 257 269 185 249 248 255 258 237 230 228 221 214 210 222 236 224 226 243 272 274 270 264 271 280 284 287 289 288 285 282 276 271
99 123 78 287 347 9 311 230 219 220 218 213 243 248 186 230 231 245 251 239 240 240 238 228 218 237 255 228 226 257 252 239 231 240 253 263 273 279 278 275 275 275 273 271
171 145 131 240 15 214 241 205 196 215 257 235 263 266 233 245 246 256 259 259 261 260 254 249 237 244 274 228 249 247 232 220 229 245 255 272 283 286 284 282 279 274 272 272
194 158 281 203 217 305 307 261 176 175 270 224 231 260 264 258 263 261 257 254 256 255 259 260 259 255 261 237 240 221 214 220 232 244 275 300 310 308 300 289 279 273 269 268
179 198 191 134 223 224 241 338 211 154 268 254 209 242 283 162 213 258 279 272 264 260 256 257 254 252 242 239 222 212 213 217 226 253 285 305 308 304 299 291 282 273 268 267
137 180 219 235 244 283 248 211 179 134 243 72 306 304 300 205 247 287 290 315 292 273 257 249 245 236 239 225 210 206 209 222 247 274 298 305 304 299 292 287 282 274 270 268
162 164 198 188 207 264 219 122 191 236 273 299 310 310 317 303 304 296 284 282 280 279 272 243 231 222 205 197 197 205 224 247 273 291 299 302 302 301 294 283 274 270 267 266
245 189 183 184 208 235 202 220 240 270 286 297 296 294 313 313 312 302 297 288 276 252 242 204 181 179 183 193 208 226 250 272 287 295 299 301 302 300 297 292 281 271 266 265
250 164 217 99 254 237 254 249 252 273 290 297 299 284 293 296 319 303 290 291 268 232 198 187 187 196 212 224 241 265 282 289 294 297 297 296 292 292 292 286 281 273 268 264
196 158 186 245 262 288 269 266 279 282 286 294 293 290 285 270 259 305 295 260 232 228 225 225 234 247 257 263 270 277 281 287 291 291 287 286 287 289 289 286 281 275 268 260
187 187 196 243 238 222 265 282 271 286 301 287 301 308 250 263 252 264 276 255 245 240 248 254 260 263 264 266 270 276 284 288 286 280 278 280 284 285 282 280 276 276 260 250